Location: ?????
(41.1933°N, 20.5989°E)
Time: 12:06:35
(UTC+00:00)

Daily predictions for brighter satellites

Satellite Brightness Start Highest point End
(mag) Time Altitude Azimuth Time Altitude Azimuth Time Altitude Azimuth
Meteor 2-1 Rocket 4.2 16:07:25 10° N 16:12:56 70° E 16:18:24 10° SSE
X-37B 1.3 16:12:45 10° WNW 16:15:48 41° N 16:18:51 10° E
Cosmos 1812 Rocket 4.2 16:12:18 10° N 16:16:17 34° ENE 16:20:13 10° SE
Okean O Rocket 1.6 16:12:12 10° SSE 16:16:37 81° ENE 16:21:02 10° N
ISS -1.5 16:15:30 10° NW 16:17:34 15° N 16:19:38 10° NNE
Iridium 4 Rocket 4.2 16:17:27 10° NNE 16:22:06 30° E 16:26:22 10° SE
CZ-4 R/B 2.7 16:19:33 10° ESE 16:22:29 20° ENE 16:25:25 10° NNE
SKYMED 2 3.8 16:22:32 10° NNE 16:26:45 48° E 16:30:56 10° S
Cosmos 2278 Rocket 2.6 16:22:35 10° S 16:27:52 42° ESE 16:33:11 10° NE
Okean-O 3.7 16:25:02 10° ESE 16:28:28 23° ENE 16:31:56 10° NNE
ERS-2 3.3 16:26:16 10° NE 16:29:16 24° E 16:32:16 10° SSE
CZ-2C R/B 3.4 16:28:09 10° SE 16:33:22 49° ENE 16:38:51 10° N
Cosmos 1346 Rocket 3.7 16:31:07 10° SSE 16:34:25 26° E 16:37:44 10° NE
Cosmos 1340 2.6 16:30:51 10° S 16:34:34 72° E 16:38:19 10° NNE
NOSS 2-1 (E) 4.1 16:31:48 10° WSW 16:34:57 39° NW 16:38:13 10° NNE
CZ-4B R/B 3.9 16:29:28 10° S 16:34:59 63° WSW 16:40:36 10° NNW
Cosmos 44 Rocket 4.4 16:37:17 10° SSE 16:41:14 25° ESE 16:44:33 13° ENE
ARGOS 4.0 16:42:16 10° ESE 16:46:41 27° ENE 16:51:07 10° N
SAR-Lupe-4 4.3 16:44:15 10° NNE 16:47:29 31° E 16:50:41 10° SSE
Cosmos 1626 Rocket 4.4 16:44:29 10° SSW 16:48:48 54° W 16:53:09 10° N
Cosmos 1455 3.8 16:45:45 10° NNW 16:49:19 38° W 16:52:54 10° SSW
Cosmos 1092 Rocket 4.0 16:43:12 10° S 16:49:22 88° W 16:55:33 10° N
Cosmos 405 3.0 16:46:26 10° N 16:49:54 54° E 16:53:20 10° SSE
Cosmos 1898 Rocket 4.2 16:47:21 10° SW 16:52:30 56° WNW 16:57:39 10° NNE
Cosmos 372 Rocket 4.1 16:48:29 10° S 16:53:32 55° ESE 16:58:39 10° NNE
CZ-2C R/B 3.7 16:54:15 10° NE 16:58:51 26° E 17:03:26 10° SSE
PSLV R/B 4.1 16:54:44 10° NNE 16:58:52 52° E 17:02:58 10° S
Cosmos 1328 4.4 16:57:07 10° SSW 17:01:03 60° W 17:04:59 10° N
CZ-2D R/B 3.4 16:59:41 10° S 17:03:30 76° WSW 17:07:21 10° NNW
SAR-Lupe-1 4.2 17:00:04 10° NNE 17:03:35 51° E 17:07:04 10° S
CZ-4B R/B 2.6 17:02:31 10° N 17:05:39 42° WNW 17:08:40 10° SW
Meteor 1-11 4.2 17:01:29 10° S 17:07:10 82° E 17:12:50 10° NNE
MOS 1 Rocket 3.2 17:03:12 10° N 17:07:29 75° WNW 17:11:51 10° SSW
Meteor 2-15 4.4 17:02:06 10° N 17:08:16 69° E 17:14:21 10° SSE
Cosmos-2242 2.9 17:07:16 10° N 17:11:34 71° E 17:15:53 10° SSE
COSMO-SKYMED 1 3.5 17:10:36 10° N 17:14:48 49° WNW 17:18:58 10° SSW
Cosmos 1937 Rocket 4.4 17:10:03 10° SW 17:15:11 49° WNW 17:20:22 10° N
Cosmos 1758 Rocket 3.8 17:11:01 10° SSW 17:15:27 72° W 17:19:58 10° N
Cosmos 2098 Rocket 4.4 17:08:31 10° S 17:15:54 86° W 17:23:12 10° N
BREEZE-M DEB (TANK) 3.5 17:15:46 10° NW 17:17:14 22° N 17:17:14 22° N
CSL-04 Debris 4.3 17:14:58 10° SE 17:20:09 51° ENE 17:25:22 10° N
SL-08 RB Rocket 4.2 17:21:13 33° E 17:21:36 34° ENE 17:25:39 10° N
USA 290 2.3 17:20:40 10° NNW 17:23:50 74° WSW 17:27:00 10° SSE
H-2A R/B 1.9 17:20:44 10° SSE 17:25:46 82° ENE 17:30:59 10° N
USA 276 3.4 17:24:16 10° SSW 17:26:35 28° SSE 17:26:35 28° SSE
Cosmos 1125 Rocket 3.9 17:22:20 10° S 17:27:09 39° ESE 17:28:18 35° ENE
Cosmos 2266 Rocket 4.2 17:21:52 10° SSE 17:27:42 44° E 17:33:28 10° NNE
Cosmos 1833 Rocket 2.7 17:22:28 10° NNW 17:28:06 83° WSW 17:33:43 10° SSE
Helios 1A Rocket 2.8 17:24:19 10° SSE 17:28:25 71° ENE 17:32:34 10° N
Cosmos 2298 Rocket 4.0 17:24:15 10° S 17:29:28 63° ESE 17:32:59 21° NNE
Cosmos 2344 4.5 17:25:43 10° NW 17:35:31 88° ENE 17:49:21 10° SSE
USA 229 DEB 4.3 17:29:16 10° NW 17:36:36 67° WSW 17:44:15 10° SSE
USA 229 4.3 17:29:22 10° NW 17:36:43 67° WSW 17:44:23 10° SSE
CZ-3B R/B 2.7 17:33:52 10° NW 17:37:14 87° NE 17:49:56 10° SE
YAOGAN 1 2.8 17:33:11 10° S 17:37:29 68° W 17:41:49 10° NNW
SJ-11-01 4.3 17:34:34 10° S 17:39:15 80° WSW 17:43:57 10° NNW
In-Cosmos 22 Rocket 4.2 17:34:24 10° S 17:40:08 66° E 17:45:47 10° NNE
Cosmos 1417 Rocket 4.4 17:34:56 10° N 17:41:13 85° E 17:47:32 10° S
Meteor 2-15 Rocket 4.5 17:35:08 10° N 17:41:20 83° W 17:47:28 10° S
Cosmos 1689 Rocket 3.6 17:41:34 25° NNW 17:42:37 34° WNW 17:45:13 10° SW
Cosmos 1943 Rocket 3.7 17:39:41 10° SSE 17:41:41 19° SE 17:41:41 19° SE
Cosmos 1553 Rocket 4.1 17:38:00 10° N 17:44:23 79° W 17:50:40 10° S
Cosmos 1241 Rocket 4.4 17:38:23 10° SSW 17:44:50 80° ESE 17:48:36 28° NE
COSMOS 2406 4.1 17:41:48 10° NW 17:47:22 50° WSW 17:52:51 10° S
Cosmos 2082 Rocket 2.1 17:42:14 10° NNW 17:47:59 78° ENE 17:51:40 23° SSE
Meteor 1-27 4.4 17:45:39 10° NNW 17:51:13 70° W 17:56:43 10° S
X-37B 1.9 17:49:24 10° WNW 17:51:36 40° W 17:51:36 40° W
Meteor 2-21 4.3 17:47:40 10° S 17:53:40 67° E 17:59:45 10° NNE
ISS -1.1 17:53:06 10° NNW 17:53:50 13° NNW 17:53:50 13° NNW
CZ-4 R/B 3.2 17:53:42 10° SSW 17:57:18 31° W 18:00:53 10° NNW
CSL-04 Rocket 3.8 17:55:56 10° S 18:01:22 76° WSW 18:06:54 10° NNW
Meteor 2-14 Rocket 4.2 17:55:43 10° S 18:01:44 75° E 18:07:50 10° NNE
Cosmos 2315 Rocket 4.3 17:56:48 10° N 18:01:35 45° NE 18:01:35 45° NE
Cosmos 883 Rocket 4.3 17:57:48 10° N 18:03:58 65° E 18:05:21 51° SE
Okean-O 4.3 18:00:44 10° SSW 18:04:45 33° W 18:08:47 10° NNW
Cosmos 1655 Rocket 4.2 18:04:18 10° SSW 18:10:30 71° W 18:16:43 10° N
S3M 4.1 18:04:45 10° NNW 18:10:49 70° W 18:16:55 10° S
Cosmos 2278 Rocket 3.9 18:07:10 10° WSW 18:12:04 29° NW 18:16:59 10° N
Meteor 2-21 Rocket 4.2 18:10:41 10° S 18:16:43 78° E 18:16:52 78° ENE
Cosmos 44 Rocket 4.3 18:17:51 10° WSW 18:22:30 42° NW 18:23:19 39° NNW
ARGOS 4.4 18:21:43 10° SSW 18:26:43 40° W 18:31:47 10° NNW
CZ-2C R/B 3.7 18:33:59 10° N 18:39:16 44° WNW 18:44:33 10° SW
Milstar 3 4.2 18:38:23 10° SW 18:44:24 26° S 18:44:24 26° S
